25-07-2022, 00:00:02,    211,    1.2,   16.4,   0.00,   0.00, 1006.9,   81.3, -999.0
25-07-2022, 00:00:12,    212,    2.1,   16.4,   0.00,   0.00, 1006.9,   81.3, -999.0
25-07-2022, 00:00:21,    185,    1.0,   16.4,   0.00,   0.00, 1006.9,   81.3, -999.0
25-07-2022, 00:00:31,    186,    0.2,   16.3,   0.00,   0.00, 1006.8,   81.0, -999.0
25-07-2022, 00:00:41,    188,    1.0,   16.3,   0.00,   0.00, 1006.9,   81.1, -999.0
25-07-2022, 00:00:51,    218,    5.0,   16.3,   0.00,   0.00, 1007.0,   81.3, -999.0
25-07-2022, 00:01:01,    203,    5.0,   16.3,   0.00,   0.00, 1006.8,   81.2, -999.0
25-07-2022, 00:01:11,    183,    2.5,   16.4,   0.00,   0.00, 1006.9,   81.1, -999.0
25-07-2022, 00:01:21,    213,    1.9,   16.3,   0.00,   0.00, 1006.9,   81.2, -999.0
25-07-2022, 00:01:31,    224,    2.6,   16.3,   0.00,   0.00, 1006.9,   81.0, -999.0
25-07-2022, 00:01:41,    204,    2.8,   16.3,   0.00,   0.00, 1006.9,   81.1, -999.0
25-07-2022, 00:01:51,    218,    2.2,   16.3,   0.00,   0.00, 1006.9,   81.1, -999.0
25-07-2022, 00:02:01,    179,    0.5,   16.4,   0.00,   0.00, 1006.9,   80.9, -999.0
25-07-2022, 00:02:11,    212,    3.0,   16.3,   0.00,   0.00, 1006.9,   81.0, -999.0
25-07-2022, 00:02:21,    220,    1.0,   16.3,   0.00,   0.00, 1006.9,   81.1, -999.0
25-07-2022, 00:02:31,    177,    2.9,   16.4,   0.00,   0.00, 1006.9,   81.0, -999.0
25-07-2022, 00:02:41,    246,    0.9,   16.3,   0.00,   0.00, 1006.9,   80.9, -999.0
25-07-2022, 00:02:50,    244,    0.1,   16.3,   0.00,   0.00, 1006.8,   80.7, -999.0
25-07-2022, 00:03:00,    203,    1.8,   16.3,   0.00,   0.00, 1006.8,   80.9, -999.0
25-07-2022, 00:03:11,    208,    3.2,   16.3,   0.00,   0.00, 1006.9,   81.0, -999.0
25-07-2022, 00:03:20,    219,    1.3,   16.3,   0.00,   0.00, 1006.8,   80.9, -999.0
25-07-2022, 00:03:30,    194,    1.4,   16.4,   0.00,   0.00, 1006.9,   80.9, -999.0
25-07-2022, 00:03:41,    186,    0.3,   16.4,   0.00,   0.00, 1006.9,   80.9, -999.0
25-07-2022, 00:03:50,    201,    1.5,   16.3,   0.00,   0.00, 1006.9,   80.9, -999.0
25-07-2022, 00:04:00,    218,    2.3,   16.3,   0.00,   0.00, 1006.9,   80.9, -999.0
25-07-2022, 00:04:10,    193,    2.7,   16.3,   0.00,   0.00, 1006.9,   80.9, -999.0
25-07-2022, 00:04:20,    211,    3.5,   16.3,   0.00,   0.00, 1006.8,   80.8, -999.0
25-07-2022, 00:04:30,    223,    2.3,   16.3,   0.00,   0.00, 1006.9,   80.8, -999.0
25-07-2022, 00:04:40,    198,    2.3,   16.3,   0.00,   0.00, 1006.8,   80.7, -999.0
25-07-2022, 00:04:50,    204,    1.4,   16.3,   0.00,   0.00, 1006.9,   80.8, -999.0
25-07-2022, 00:05:00,    221,    1.2,   16.2,   0.00,   0.00, 1006.9,   80.8, -999.0
25-07-2022, 00:05:10,    200,    2.0,   16.3,   0.00,   0.00, 1006.8,   80.8, -999.0
25-07-2022, 00:05:20,    209,    0.2,   16.3,   0.00,   0.00, 1006.8,   80.8, -999.0
25-07-2022, 00:05:30,    207,    2.1,   16.3,   0.00,   0.00, 1006.8,   80.9, -999.0
25-07-2022, 00:05:40,    203,    2.0,   16.2,   0.00,   0.00, 1006.8,   81.0, -999.0
25-07-2022, 00:05:50,    213,    2.9,   16.4,   0.00,   0.00, 1006.8,   80.9, -999.0
25-07-2022, 00:05:59,    216,    2.7,   16.3,   0.00,   0.00, 1006.8,   80.8, -999.0
25-07-2022, 00:06:10,    191,    2.6,   16.3,   0.00,   0.00, 1006.8,   80.7, -999.0
25-07-2022, 00:06:19,    206,    3.5,   16.2,   0.00,   0.00, 1006.8,   80.9, -999.0
25-07-2022, 00:06:29,    158,    3.9,   16.3,   0.00,   0.00, 1006.8,   80.7, -999.0
25-07-2022, 00:06:39,    231,    2.4,   16.3,   0.00,   0.00, 1006.8,   80.7, -999.0
25-07-2022, 00:06:49,    229,    2.7,   16.2,   0.00,   0.00, 1006.8,   80.8, -999.0
25-07-2022, 00:06:59,    244,    3.6,   16.3,   0.00,   0.00, 1006.8,   80.7, -999.0
25-07-2022, 00:07:09,    199,    4.0,   16.3,   0.00,   0.00, 1006.8,   80.7, -999.0
25-07-2022, 00:07:19,    262,    4.7,   16.3,   0.00,   0.00, 1006.8,   80.5, -999.0
25-07-2022, 00:07:29,    210,    3.5,   16.3,   0.00,   0.00, 1006.8,   80.5, -999.0
25-07-2022, 00:07:39,    221,    3.9,   16.3,   0.00,   0.00, 1006.8,   80.5, -999.0
25-07-2022, 00:07:49,    223,    4.9,   16.3,   0.00,   0.00, 1006.8,   80.4, -999.0
25-07-2022, 00:07:59,    217,    2.5,   16.3,   0.00,   0.00, 1006.8,   80.4, -999.0
25-07-2022, 00:08:09,    229,    1.6,   16.3,   0.00,   0.00, 1006.8,   80.4, -999.0
25-07-2022, 00:08:19,    255,    1.3,   16.2,   0.00,   0.00, 1006.8,   80.5, -999.0
25-07-2022, 00:08:28,    216,    0.9,   16.3,   0.00,   0.00, 1006.8,   80.5, -999.0
25-07-2022, 00:08:39,    216,    0.4,   16.2,   0.00,   0.00, 1006.8,   80.4, -999.0
25-07-2022, 00:08:49,    233,    1.7,   16.3,   0.00,   0.00, 1006.8,   80.5, -999.0
25-07-2022, 00:08:58,    191,    0.7,   16.2,   0.00,   0.00, 1006.8,   80.4, -999.0
25-07-2022, 00:09:08,    232,    2.0,   16.3,   0.00,   0.00, 1006.8,   80.5, -999.0
25-07-2022, 00:09:19,    199,    1.7,   16.3,   0.00,   0.00, 1006.8,   80.5, -999.0
25-07-2022, 00:09:28,    199,    1.1,   16.2,   0.00,   0.00, 1006.8,   80.4, -999.0
25-07-2022, 00:09:38,    225,    1.6,   16.3,   0.00,   0.00, 1006.8,   80.5, -999.0
25-07-2022, 00:09:48,    224,    0.2,   16.3,   0.00,   0.00, 1006.7,   80.5, -999.0
25-07-2022, 00:09:58,    224,    0.0,   16.1,   0.00,   0.00, 1006.7,   80.1, -999.0
25-07-2022, 00:10:08,    223,    0.0,   16.2,   0.00,   0.00, 1006.6,   80.2, -999.0
25-07-2022, 00:10:18,    223,    0.0,   16.1,   0.00,   0.00, 1006.6,   80.3, -999.0
25-07-2022, 00:10:28,    228,    0.3,   16.2,   0.00,   0.00, 1006.7,   80.3, -999.0
25-07-2022, 00:10:38,    182,    0.4,   16.2,   0.00,   0.00, 1006.6,   80.5, -999.0
25-07-2022, 00:10:48,    186,    0.5,   16.2,   0.00,   0.00, 1006.7,   80.5, -999.0
25-07-2022, 00:10:58,    217,    2.2,   16.2,   0.00,   0.00, 1006.7,   80.5, -999.0
25-07-2022, 00:11:08,    236,    1.8,   16.2,   0.00,   0.00, 1006.7,   80.4, -999.0
25-07-2022, 00:11:18,    232,    3.7,   16.2,   0.00,   0.00, 1006.7,   80.6, -999.0
25-07-2022, 00:11:28,    212,    1.0,   16.2,   0.00,   0.00, 1006.7,   80.4, -999.0
25-07-2022, 00:11:37,    199,    3.3,   16.3,   0.00,   0.00, 1006.7,   80.4, -999.0
25-07-2022, 00:11:48,    169,    3.1,   16.1,   0.00,   0.00, 1006.7,   80.4, -999.0
25-07-2022, 00:11:57,    199,    2.9,   16.2,   0.00,   0.00, 1006.7,   80.4, -999.0
25-07-2022, 00:12:07,    198,    1.7,   16.2,   0.00,   0.00, 1006.6,   80.4, -999.0
25-07-2022, 00:12:17,    195,    2.8,   16.2,   0.00,   0.00, 1006.6,   80.3, -999.0
25-07-2022, 00:12:27,    215,    3.3,   16.1,   0.00,   0.00, 1006.6,   80.4, -999.0
25-07-2022, 00:12:37,    216,    1.2,   16.2,   0.00,   0.00, 1006.7,   80.5, -999.0
25-07-2022, 00:12:47,    203,    1.3,   16.2,   0.00,   0.00, 1006.7,   80.5, -999.0
25-07-2022, 00:12:57,    206,    2.9,   16.1,   0.00,   0.00, 1006.6,   80.5, -999.0
25-07-2022, 00:13:07,    205,    0.3,   16.1,   0.00,   0.00, 1006.6,   80.4, -999.0
25-07-2022, 00:13:17,    203,    0.8,   16.0,   0.00,   0.00, 1006.6,   80.5, -999.0
25-07-2022, 00:13:27,    240,    1.2,   16.1,   0.00,   0.00, 1006.7,   80.6, -999.0
25-07-2022, 00:13:37,    178,    0.7,   16.1,   0.00,   0.00, 1006.6,   80.6, -999.0
25-07-2022, 00:13:47,    219,    1.7,   16.1,   0.00,   0.00, 1006.6,   80.5, -999.0
25-07-2022, 00:13:57,    224,    2.7,   16.1,   0.00,   0.00, 1006.7,   80.7, -999.0
25-07-2022, 00:14:06,    192,    2.0,   16.1,   0.00,   0.00, 1006.6,   80.6, -999.0
25-07-2022, 00:14:17,    204,    3.2,   16.1,   0.00,   0.00, 1006.7,   80.7, -999.0
25-07-2022, 00:14:27,    212,    4.8,   16.1,   0.00,   0.00, 1006.7,   80.7, -999.0
25-07-2022, 00:14:36,    186,    2.3,   16.1,   0.00,   0.00, 1006.7,   80.7, -999.0
25-07-2022, 00:14:47,    249,    1.6,   16.1,   0.00,   0.00, 1006.7,   80.6, -999.0
25-07-2022, 00:14:57,    206,    4.0,   16.1,   0.00,   0.00, 1006.7,   80.7, -999.0
25-07-2022, 00:15:06,    213,    1.7,   16.1,   0.00,   0.00, 1006.7,   80.6, -999.0
25-07-2022, 00:15:16,    182,    3.6,   15.9,   0.00,   0.00, 1006.7,   80.6, -999.0
25-07-2022, 00:15:26,    200,    3.3,   16.1,   0.00,   0.00, 1006.7,   80.7, -999.0
25-07-2022, 00:15:36,    189,    2.6,   16.1,   0.00,   0.00, 1006.7,   80.6, -999.0
25-07-2022, 00:15:46,    207,    0.8,   16.1,   0.00,   0.00, 1006.7,   80.7, -999.0
25-07-2022, 00:15:56,    241,    1.3,   15.9,   0.00,   0.00, 1006.7,   80.6, -999.0
25-07-2022, 00:16:06,    232,    2.6,   16.1,   0.00,   0.00, 1006.7,   80.8, -999.0
25-07-2022, 00:16:16,    256,    0.5,   16.0,   0.00,   0.00, 1006.6,   80.6, -999.0
25-07-2022, 00:16:26,    244,    3.1,   16.1,   0.00,   0.00, 1006.7,   80.8, -999.0
25-07-2022, 00:16:36,    230,    3.4,   16.1,   0.00,   0.00, 1006.7,   80.8, -999.0
25-07-2022, 00:16:46,    219,    1.3,   16.1,   0.00,   0.00, 1006.7,   80.8, -999.0
25-07-2022, 00:16:56,    183,    0.6,   16.1,   0.00,   0.00, 1006.6,   80.7, -999.0
25-07-2022, 00:17:06,    182,    0.0,   16.0,   0.00,   0.00, 1006.5,   80.4, -999.0
25-07-2022, 00:17:16,    217,    0.4,   15.9,   0.00,   0.00, 1006.6,   80.6, -999.0
25-07-2022, 00:17:26,    227,    0.9,   16.1,   0.00,   0.00, 1006.7,   80.8, -999.0
25-07-2022, 00:17:35,    200,    0.8,   16.0,   0.00,   0.00, 1006.6,   80.9, -999.0
25-07-2022, 00:17:45,    186,    0.9,   16.1,   0.00,   0.00, 1006.7,   80.9, -999.0
25-07-2022, 00:17:56,    248,    1.1,   16.0,   0.00,   0.00, 1006.6,   80.7, -999.0
25-07-2022, 00:18:05,    149,    0.4,   16.0,   0.00,   0.00, 1006.6,   80.7, -999.0
25-07-2022, 00:18:15,    234,    0.9,   16.0,   0.00,   0.00, 1006.6,   80.7, -999.0
25-07-2022, 00:18:25,    212,    2.8,   16.0,   0.00,   0.00, 1006.7,   80.8, -999.0
25-07-2022, 00:18:35,    200,    2.7,   16.1,   0.00,   0.00, 1006.7,   80.9, -999.0
25-07-2022, 00:18:45,    232,    0.8,   16.1,   0.00,   0.00, 1006.6,   80.6, -999.0
25-07-2022, 00:18:55,    204,    4.2,   16.1,   0.00,   0.00, 1006.7,   80.7, -999.0
25-07-2022, 00:19:05,    192,    4.1,   16.1,   0.00,   0.00, 1006.7,   80.5, -999.0
25-07-2022, 00:19:15,    176,    2.4,   16.1,   0.00,   0.00, 1006.7,   80.5, -999.0
25-07-2022, 00:19:25,    203,    0.7,   16.0,   0.00,   0.00, 1006.6,   80.4, -999.0
25-07-2022, 00:19:35,    201,    4.0,   16.1,   0.00,   0.00, 1006.7,   80.6, -999.0
25-07-2022, 00:19:45,    190,    3.2,   16.0,   0.00,   0.00, 1006.7,   80.5, -999.0
25-07-2022, 00:19:55,    228,    2.1,   16.1,   0.00,   0.00, 1006.7,   80.6, -999.0
25-07-2022, 00:20:05,    199,    1.5,   16.1,   0.00,   0.00, 1006.7,   80.7, -999.0
25-07-2022, 00:20:14,    199,    1.7,   16.0,   0.00,   0.00, 1006.7,   80.6, -999.0
25-07-2022, 00:20:25,    220,    2.0,   16.1,   0.00,   0.00, 1006.7,   80.6, -999.0
25-07-2022, 00:20:34,    212,    1.7,   16.1,   0.00,   0.00, 1006.7,   80.6, -999.0
25-07-2022, 00:20:44,    207,    1.3,   16.1,   0.00,   0.00, 1006.7,   80.6, -999.0
25-07-2022, 00:20:55,    206,    0.7,   16.1,   0.00,   0.00, 1006.7,   80.7, -999.0
25-07-2022, 00:21:04,    200,    1.7,   15.9,   0.00,   0.00, 1006.7,   80.6, -999.0
25-07-2022, 00:21:14,    226,    3.2,   16.0,   0.00,   0.00, 1006.7,   80.7, -999.0
25-07-2022, 00:21:24,    203,    1.7,   16.1,   0.00,   0.00, 1006.7,   80.6, -999.0
25-07-2022, 00:21:34,    209,    0.8,   16.1,   0.00,   0.00, 1006.7,   80.5, -999.0
25-07-2022, 00:21:44,    209,    0.0,   16.0,   0.00,   0.00, 1006.6,   80.4, -999.0
25-07-2022, 00:21:54,    186,    0.5,   16.0,   0.00,   0.00, 1006.7,   80.6, -999.0
25-07-2022, 00:22:04,    214,    1.3,   16.1,   0.00,   0.00, 1006.7,   80.8, -999.0
25-07-2022, 00:22:14,    214,    1.0,   16.1,   0.00,   0.00, 1006.7,   80.7, -999.0
25-07-2022, 00:22:24,    231,    0.8,   16.0,   0.00,   0.00, 1006.7,   80.6, -999.0
25-07-2022, 00:22:34,    217,    1.4,   16.1,   0.00,   0.00, 1006.7,   80.7, -999.0
25-07-2022, 00:22:44,    176,    2.8,   16.0,   0.00,   0.00, 1006.7,   80.6, -999.0
25-07-2022, 00:22:54,    187,    1.0,   16.0,   0.00,   0.00, 1006.7,   80.6, -999.0
25-07-2022, 00:23:04,    211,    1.6,   16.0,   0.00,   0.00, 1006.7,   80.5, -999.0
25-07-2022, 00:23:13,    202,    2.5,   16.0,   0.00,   0.00, 1006.7,   80.5, -999.0
25-07-2022, 00:23:24,    236,    1.2,   16.0,   0.00,   0.00, 1006.7,   80.6, -999.0
25-07-2022, 00:23:34,    172,    2.6,   16.0,   0.00,   0.00, 1006.7,   80.5, -999.0
25-07-2022, 00:23:43,    232,    1.9,   15.9,   0.00,   0.00, 1006.7,   80.4, -999.0
25-07-2022, 00:23:53,    192,    2.1,   16.0,   0.00,   0.00, 1006.7,   80.4, -999.0
25-07-2022, 00:24:03,    180,    1.7,   16.0,   0.00,   0.00, 1006.7,   80.4, -999.0
25-07-2022, 00:24:13,    231,    1.4,   16.0,   0.00,   0.00, 1006.7,   80.4, -999.0
25-07-2022, 00:24:23,    227,    0.6,   16.0,   0.00,   0.00, 1006.6,   80.3, -999.0
25-07-2022, 00:24:33,    229,    3.5,   15.9,   0.00,   0.00, 1006.7,   80.4, -999.0
25-07-2022, 00:24:43,    184,    3.1,   16.0,   0.00,   0.00, 1006.7,   80.5, -999.0
25-07-2022, 00:24:53,    192,    2.8,   16.0,   0.00,   0.00, 1006.7,   80.5, -999.0
25-07-2022, 00:25:03,    206,    2.9,   15.9,   0.00,   0.00, 1006.7,   80.4, -999.0
25-07-2022, 00:25:13,    212,    1.8,   16.0,   0.00,   0.00, 1006.7,   80.4, -999.0
25-07-2022, 00:25:23,    254,    3.2,   16.0,   0.00,   0.00, 1006.7,   80.4, -999.0
25-07-2022, 00:25:33,    222,    2.8,   16.0,   0.00,   0.00, 1006.8,   80.4, -999.0
25-07-2022, 00:25:43,    241,    4.2,   16.0,   0.00,   0.00, 1006.8,   80.4, -999.0
25-07-2022, 00:25:53,    204,    2.2,   15.9,   0.00,   0.00, 1006.8,   80.4, -999.0
25-07-2022, 00:26:03,    218,    3.4,   16.0,   0.00,   0.00, 1006.7,   80.5, -999.0
25-07-2022, 00:26:12,    209,    1.5,   16.0,   0.00,   0.00, 1006.8,   80.5, -999.0
25-07-2022, 00:26:22,    203,    0.2,   15.9,   0.00,   0.00, 1006.7,   80.1, -999.0
25-07-2022, 00:26:33,    221,    0.7,   15.9,   0.00,   0.00, 1006.7,   80.3, -999.0
25-07-2022, 00:26:42,    205,    0.3,   16.0,   0.00,   0.00, 1006.8,   80.4, -999.0
25-07-2022, 00:26:52,    202,    2.0,   16.0,   0.00,   0.00, 1006.8,   80.5, -999.0
25-07-2022, 00:27:03,    225,    2.4,   15.9,   0.00,   0.00, 1006.7,   80.4, -999.0
25-07-2022, 00:27:12,    219,    1.9,   16.0,   0.00,   0.00, 1006.7,   80.3, -999.0
25-07-2022, 00:27:22,    207,    2.0,   15.9,   0.00,   0.00, 1006.7,   80.4, -999.0
25-07-2022, 00:27:32,    195,    2.2,   16.0,   0.00,   0.00, 1006.7,   80.4, -999.0
25-07-2022, 00:27:42,    207,    0.5,   15.9,   0.00,   0.00, 1006.7,   80.3, -999.0
25-07-2022, 00:27:52,    211,    2.4,   16.0,   0.00,   0.00, 1006.7,   80.4, -999.0
25-07-2022, 00:28:02,    190,    3.1,   15.9,   0.00,   0.00, 1006.7,   80.4, -999.0
25-07-2022, 00:28:12,    204,    3.8,   15.9,   0.00,   0.00, 1006.7,   80.5, -999.0
25-07-2022, 00:28:22,    198,    2.1,   15.9,   0.00,   0.00, 1006.7,   80.4, -999.0
25-07-2022, 00:28:32,    266,    1.2,   15.9,   0.00,   0.00, 1006.7,   80.4, -999.0
25-07-2022, 00:28:42,    192,    2.3,   15.9,   0.00,   0.00, 1006.7,   80.3, -999.0
25-07-2022, 00:28:51,    188,    4.0,   15.9,   0.00,   0.00, 1006.7,   80.4, -999.0
25-07-2022, 00:29:02,    192,    3.4,   15.8,   0.00,   0.00, 1006.7,   80.4, -999.0
25-07-2022, 00:29:12,    213,    1.4,   15.9,   0.00,   0.00, 1006.7,   80.4, -999.0
25-07-2022, 00:29:21,    198,    2.5,   15.9,   0.00,   0.00, 1006.8,   80.3, -999.0
25-07-2022, 00:29:32,    256,    4.1,   15.9,   0.00,   0.00, 1006.7,   80.4, -999.0
25-07-2022, 00:29:41,    205,    0.8,   15.9,   0.00,   0.00, 1006.7,   80.5, -999.0
25-07-2022, 00:29:51,    203,    1.6,   15.9,   0.00,   0.00, 1006.7,   80.4, -999.0
25-07-2022, 00:30:01,    201,    0.7,   15.9,   0.00,   0.00, 1006.7,   80.4, -999.0
25-07-2022, 00:30:11,    231,    0.1,   15.8,   0.00,   0.00, 1006.7,   80.1, -999.0
25-07-2022, 00:30:21,    248,    1.7,   15.9,   0.00,   0.00, 1006.7,   80.4, -999.0
25-07-2022, 00:30:31,    216,    1.1,   15.9,   0.00,   0.00, 1006.7,   80.5, -999.0
25-07-2022, 00:30:41,    217,    2.0,   15.9,   0.00,   0.00, 1006.7,   80.5, -999.0
25-07-2022, 00:30:51,    212,    2.0,   15.9,   0.00,   0.00, 1006.7,   80.5, -999.0
25-07-2022, 00:31:01,    225,    0.4,   15.9,   0.00,   0.00, 1006.7,   80.4, -999.0
25-07-2022, 00:31:11,    226,    0.0,   15.9,   0.00,   0.00, 1006.6,   80.1, -999.0
25-07-2022, 00:31:21,    224,    0.0,   15.8,   0.00,   0.00, 1006.6,   80.1, -999.0
25-07-2022, 00:31:31,    224,    0.1,   15.8,   0.00,   0.00, 1006.6,   80.2, -999.0
25-07-2022, 00:31:41,    262,    0.2,   15.9,   0.00,   0.00, 1006.6,   80.3, -999.0
25-07-2022, 00:31:50,    203,    0.4,   15.9,   0.00,   0.00, 1006.6,   80.5, -999.0
25-07-2022, 00:32:01,    214,    0.3,   15.9,   0.00,   0.00, 1006.6,   80.4, -999.0
25-07-2022, 00:32:11,    202,    0.6,   15.9,   0.00,   0.00, 1006.6,   80.5, -999.0
25-07-2022, 00:32:20,    208,    0.8,   15.9,   0.00,   0.00, 1006.6,   80.4, -999.0
25-07-2022, 00:32:30,    204,    0.0,   15.8,   0.00,   0.00, 1006.5,   80.1, -999.0
25-07-2022, 00:32:41,    196,    0.7,   15.9,   0.00,   0.00, 1006.6,   80.4, -999.0
25-07-2022, 00:32:50,    211,    2.5,   15.9,   0.00,   0.00, 1006.6,   80.4, -999.0
25-07-2022, 00:33:00,    195,    3.8,   15.8,   0.00,   0.00, 1006.6,   80.4, -999.0
25-07-2022, 00:33:10,    226,    1.9,   15.9,   0.00,   0.00, 1006.6,   80.3, -999.0
25-07-2022, 00:33:20,    196,    1.6,   15.8,   0.00,   0.00, 1006.6,   80.3, -999.0
25-07-2022, 00:33:30,    211,    0.6,   15.9,   0.00,   0.00, 1006.6,   80.3, -999.0
25-07-2022, 00:33:40,    211,    0.4,   15.8,   0.00,   0.00, 1006.6,   80.1, -999.0
25-07-2022, 00:33:50,    211,    0.3,   15.8,   0.00,   0.00, 1006.6,   80.2, -999.0
25-07-2022, 00:34:00,    220,    0.1,   15.8,   0.00,   0.00, 1006.6,   80.1, -999.0
25-07-2022, 00:34:10,    212,    3.0,   15.8,   0.00,   0.00, 1006.7,   80.3, -999.0
25-07-2022, 00:34:20,    236,    2.6,   15.9,   0.00,   0.00, 1006.7,   80.3, -999.0
25-07-2022, 00:34:30,    236,    1.0,   15.9,   0.00,   0.00, 1006.6,   80.3, -999.0
25-07-2022, 00:34:40,    235,    0.4,   15.8,   0.00,   0.00, 1006.6,   80.3, -999.0
25-07-2022, 00:34:50,    237,    0.3,   15.8,   0.00,   0.00, 1006.6,   80.3, -999.0
25-07-2022, 00:34:59,    237,    0.0,   15.7,   0.00,   0.00, 1006.5,   80.1, -999.0
25-07-2022, 00:35:10,    236,    0.2,   15.8,   0.00,   0.00, 1006.6,   80.3, -999.0
25-07-2022, 00:35:19,    236,    0.0,   15.8,   0.00,   0.00, 1006.5,   80.1, -999.0
25-07-2022, 00:35:29,    238,    1.3,   15.9,   0.00,   0.00, 1006.6,   80.3, -999.0
25-07-2022, 00:35:40,    211,    5.1,   15.8,   0.00,   0.00, 1006.7,   80.4, -999.0
25-07-2022, 00:35:49,    219,    2.2,   15.8,   0.00,   0.00, 1006.6,   80.5, -999.0
25-07-2022, 00:35:59,    166,    0.8,   15.8,   0.00,   0.00, 1006.6,   80.3, -999.0
25-07-2022, 00:36:09,    187,    3.1,   15.8,   0.00,   0.00, 1006.7,   80.4, -999.0
25-07-2022, 00:36:19,    219,    2.4,   15.9,   0.00,   0.00, 1006.6,   80.3, -999.0
25-07-2022, 00:36:29,    227,    3.7,   15.9,   0.00,   0.00, 1006.6,   80.4, -999.0
25-07-2022, 00:36:39,    183,    3.7,   15.8,   0.00,   0.00, 1006.6,   80.4, -999.0
25-07-2022, 00:36:49,    234,    1.3,   15.9,   0.00,   0.00, 1006.6,   80.4, -999.0
25-07-2022, 00:36:59,    229,    0.1,   15.7,   0.00,   0.00, 1006.5,   80.2, -999.0
25-07-2022, 00:37:09,    199,    0.2,   15.7,   0.00,   0.00, 1006.6,   80.2, -999.0
25-07-2022, 00:37:19,    200,    0.3,   15.7,   0.00,   0.00, 1006.6,   80.3, -999.0
25-07-2022, 00:37:28,    246,    1.0,   15.8,   0.00,   0.00, 1006.6,   80.4, -999.0
25-07-2022, 00:37:39,    175,    1.3,   15.8,   0.00,   0.00, 1006.6,   80.4, -999.0
25-07-2022, 00:37:49,    175,    0.1,   15.8,   0.00,   0.00, 1006.6,   80.4, -999.0
25-07-2022, 00:37:58,    195,    0.0,   15.8,   0.00,   0.00, 1006.5,   80.3, -999.0
25-07-2022, 00:38:09,    229,    2.2,   15.8,   0.00,   0.00, 1006.6,   80.7, -999.0
25-07-2022, 00:38:19,    218,    2.9,   15.9,   0.00,   0.00, 1006.6,   80.6, -999.0
25-07-2022, 00:38:28,    214,    2.0,   15.8,   0.00,   0.00, 1006.6,   80.4, -999.0
25-07-2022, 00:38:38,    211,    2.8,   15.9,   0.00,   0.00, 1006.6,   80.4, -999.0
25-07-2022, 00:38:48,    211,    1.5,   15.8,   0.00,   0.00, 1006.7,   80.4, -999.0
25-07-2022, 00:38:58,    210,    0.9,   15.8,   0.00,   0.00, 1006.6,   80.4, -999.0
25-07-2022, 00:39:09,    232,    1.7,   15.7,   0.00,   0.00, 1006.6,   80.3, -999.0
25-07-2022, 00:39:18,    220,    1.4,   15.8,   0.00,   0.00, 1006.6,   80.4, -999.0
25-07-2022, 00:39:28,    197,    2.6,   15.8,   0.00,   0.00, 1006.6,   80.4, -999.0
25-07-2022, 00:39:38,    195,    4.0,   15.7,   0.00,   0.00, 1006.6,   80.3, -999.0
25-07-2022, 00:39:48,    175,    2.5,   15.8,   0.00,   0.00, 1006.6,   80.5, -999.0
25-07-2022, 00:39:58,    213,    2.2,   15.8,   0.00,   0.00, 1006.6,   80.4, -999.0
25-07-2022, 00:40:08,    188,    2.4,   15.8,   0.00,   0.00, 1006.6,   80.4, -999.0
25-07-2022, 00:40:18,    177,    4.0,   15.7,   0.00,   0.00, 1006.6,   80.5, -999.0
25-07-2022, 00:40:28,    222,    2.4,   15.8,   0.00,   0.00, 1006.6,   80.4, -999.0
25-07-2022, 00:40:38,    225,    4.7,   15.8,   0.00,   0.00, 1006.6,   80.4, -999.0
25-07-2022, 00:40:48,    212,    1.2,   15.8,   0.00,   0.00, 1006.6,   80.4, -999.0
25-07-2022, 00:40:57,    203,    2.1,   15.9,   0.00,   0.00, 1006.6,   80.4, -999.0
25-07-2022, 00:41:07,    212,    3.2,   15.8,   0.00,   0.00, 1006.6,   80.4, -999.0
25-07-2022, 00:41:18,    184,    2.6,   15.8,   0.00,   0.00, 1006.6,   80.3, -999.0
25-07-2022, 00:41:27,    214,    2.7,   15.8,   0.00,   0.00, 1006.6,   80.3, -999.0
25-07-2022, 00:41:37,    199,    1.8,   15.8,   0.00,   0.00, 1006.6,   80.5, -999.0
25-07-2022, 00:41:47,    209,    1.6,   15.8,   0.00,   0.00, 1006.6,   80.4, -999.0
25-07-2022, 00:41:57,    222,    2.2,   15.8,   0.00,   0.00, 1006.6,   80.4, -999.0
25-07-2022, 00:42:07,    221,    0.7,   15.8,   0.00,   0.00, 1006.6,   80.4, -999.0
25-07-2022, 00:42:17,    221,    0.1,   15.7,   0.00,   0.00, 1006.5,   80.2, -999.0
25-07-2022, 00:42:27,    176,    0.2,   15.7,   0.00,   0.00, 1006.6,   80.3, -999.0
25-07-2022, 00:42:37,    176,    0.0,   15.7,   0.00,   0.00, 1006.5,   80.2, -999.0
25-07-2022, 00:42:47,    172,    0.3,   15.7,   0.00,   0.00, 1006.5,   80.2, -999.0
25-07-2022, 00:42:57,    225,    2.0,   15.8,   0.00,   0.00, 1006.6,   80.5, -999.0
25-07-2022, 00:43:07,    196,    3.1,   15.8,   0.00,   0.00, 1006.6,   80.4, -999.0
25-07-2022, 00:43:17,    199,    1.4,   15.7,   0.00,   0.00, 1006.6,   80.4, -999.0
25-07-2022, 00:43:27,    201,    0.7,   15.7,   0.00,   0.00, 1006.6,   80.4, -999.0
25-07-2022, 00:43:36,    212,    2.6,   15.8,   0.00,   0.00, 1006.6,   80.4, -999.0
25-07-2022, 00:43:47,    220,    1.3,   15.8,   0.00,   0.00, 1006.6,   80.5, -999.0
25-07-2022, 00:43:56,    226,    1.4,   15.7,   0.00,   0.00, 1006.6,   80.5, -999.0
25-07-2022, 00:44:06,    187,    1.6,   15.8,   0.00,   0.00, 1006.6,   80.5, -999.0
25-07-2022, 00:44:17,    218,    0.6,   15.7,   0.00,   0.00, 1006.6,   80.3, -999.0
25-07-2022, 00:44:26,    177,    3.8,   15.7,   0.00,   0.00, 1006.6,   80.5, -999.0
25-07-2022, 00:44:36,    235,    2.3,   15.8,   0.00,   0.00, 1006.6,   80.5, -999.0
25-07-2022, 00:44:46,    206,    1.8,   15.8,   0.00,   0.00, 1006.6,   80.4, -999.0
25-07-2022, 00:44:56,    209,    2.3,   15.8,   0.00,   0.00, 1006.6,   80.4, -999.0
25-07-2022, 00:45:06,    211,    2.1,   15.8,   0.00,   0.00, 1006.6,   80.4, -999.0
25-07-2022, 00:45:16,    218,    1.0,   15.8,   0.00,   0.00, 1006.6,   80.4, -999.0
25-07-2022, 00:45:26,    218,    0.0,   15.7,   0.00,   0.00, 1006.5,   80.1, -999.0
25-07-2022, 00:45:36,    217,    1.0,   15.7,   0.00,   0.00, 1006.6,   80.4, -999.0
25-07-2022, 00:45:46,    225,    2.3,   15.7,   0.00,   0.00, 1006.6,   80.5, -999.0
25-07-2022, 00:45:56,    214,    1.6,   15.7,   0.00,   0.00, 1006.6,   80.4, -999.0
25-07-2022, 00:46:06,    199,    0.5,   15.7,   0.00,   0.00, 1006.6,   80.3, -999.0
25-07-2022, 00:46:16,    198,    0.8,   15.8,   0.00,   0.00, 1006.6,   80.5, -999.0
25-07-2022, 00:46:26,    198,    0.0,   15.7,   0.00,   0.00, 1006.5,   80.1, -999.0
25-07-2022, 00:46:35,    198,    0.2,   15.7,   0.00,   0.00, 1006.6,   80.4, -999.0